TimeCST,TemperatureF,Dew PointF,Humidity,Sea Level PressureIn,VisibilityMPH,Wind Direction,Wind SpeedMPH,Gust SpeedMPH,PrecipitationIn,Events,Conditions,WindDirDegrees,DateUTC
12:11 AM,21.9,7.0,53,29.65,1.2,SW,12.7,23.0,0.00,Snow,Light Snow,220,2014-01-24 06:11:00
12:33 AM,23.0,8.1,53,29.65,1.2,SW,10.4,-,0.00,Snow,Light Snow,230,2014-01-24 06:33:00
12:43 AM,25.0,9.0,51,29.64,1.5,SW,12.7,-,0.01,Snow,Light Snow,230,2014-01-24 06:43:00
12:53 AM,24.1,9.0,53,29.70,1.2,SW,15.0,-,0.01,Snow,Light Snow,230,2014-01-24 06:53:00
1:04 AM,24.1,10.0,55,29.63,1.0,SW,15.0,-,0.00,Snow,Light Snow,230,2014-01-24 07:04:00
1:16 AM,25.0,10.0,53,29.62,1.5,SW,13.8,19.6,0.00,Snow,Light Snow,230,2014-01-24 07:16:00
1:24 AM,25.0,10.0,53,29.61,3.0,WSW,11.5,-,0.00,Snow,Light Snow,240,2014-01-24 07:24:00
1:53 AM,26.1,10.0,51,29.68,10.0,West,8.1,-,0.00,,Overcast,260,2014-01-24 07:53:00
2:34 AM,28.9,10.9,47,29.59,10.0,WSW,6.9,-,N/A,,Overcast,250,2014-01-24 08:34:00
2:53 AM,28.0,12.0,51,29.65,10.0,WSW,6.9,-,N/A,,Overcast,250,2014-01-24 08:53:00
3:53 AM,28.0,14.0,56,29.64,10.0,West,5.8,-,N/A,,Overcast,270,2014-01-24 09:53:00
4:25 AM,28.9,16.0,58,29.58,10.0,Variable,5.8,-,N/A,,Overcast,0,2014-01-24 10:25:00
4:53 AM,28.9,16.0,58,29.64,10.0,Variable,5.8,-,N/A,,Overcast,0,2014-01-24 10:53:00
5:53 AM,33.1,18.0,54,29.63,10.0,WNW,8.1,-,N/A,,Overcast,300,2014-01-24 11:53:00
6:05 AM,34.0,18.0,52,29.56,10.0,WNW,9.2,-,N/A,,Overcast,300,2014-01-24 12:05:00
6:53 AM,33.1,18.0,54,29.60,10.0,WNW,6.9,-,N/A,,Overcast,290,2014-01-24 12:53:00
7:22 AM,35.1,19.0,52,29.53,9.0,Variable,6.9,-,N/A,,Overcast,0,2014-01-24 13:22:00
7:53 AM,33.1,19.0,56,29.58,8.0,Variable,6.9,-,N/A,,Overcast,0,2014-01-24 13:53:00
8:53 AM,23.0,19.9,88,29.59,10.0,WNW,8.1,-,N/A,,Overcast,300,2014-01-24 14:53:00
9:18 AM,23.0,19.9,88,29.51,10.0,WNW,8.1,-,N/A,,Overcast,300,2014-01-24 15:18:00
9:31 AM,24.1,19.9,84,29.51,10.0,WNW,6.9,-,N/A,,Overcast,300,2014-01-24 15:31:00
9:53 AM,24.1,19.9,84,29.55,10.0,WNW,5.8,-,N/A,,Overcast,290,2014-01-24 15:53:00
10:19 AM,24.1,19.9,84,29.47,10.0,WNW,4.6,-,N/A,,Overcast,290,2014-01-24 16:19:00
10:53 AM,24.1,21.0,88,29.52,10.0,Variable,4.6,-,N/A,,Overcast,0,2014-01-24 16:53:00
11:04 AM,24.1,21.0,88,29.46,1.8,West,5.8,-,0.00,Snow,Light Snow,270,2014-01-24 17:04:00
11:10 AM,24.1,21.0,88,29.46,1.0,Variable,4.6,-,0.00,Snow,Light Snow,0,2014-01-24 17:10:00
11:20 AM,24.1,21.0,88,29.46,0.8,Variable,5.8,-,0.00,Snow,Light Snow,0,2014-01-24 17:20:00
11:32 AM,24.1,21.9,91,29.45,0.8,Variable,4.6,-,0.01,Snow,Light Snow,0,2014-01-24 17:32:00
11:42 AM,24.1,21.9,91,29.44,1.0,West,5.8,-,0.01,Snow,Light Snow,260,2014-01-24 17:42:00
11:49 AM,24.8,21.2,86,29.44,0.8,Variable,5.8,-,0.01,Snow,Light Snow,0,2014-01-24 17:49:00
11:53 AM,25.0,21.9,88,29.49,0.5,West,5.8,-,0.01,Fog-Snow,Light Snow,260,2014-01-24 17:53:00
12:15 PM,-9999,-9999,N/A,29.42,0.8,Variable,4.6,-,0.01,,Unknown,0,2014-01-24 18:15:00
12:30 PM,25.0,21.9,88,29.41,1.0,West,9.2,-,0.01,Snow,Light Snow,280,2014-01-24 18:30:00
12:39 PM,25.0,21.9,88,29.41,1.2,West,9.2,-,0.01,Snow,Light Snow,270,2014-01-24 18:39:00
12:51 PM,26.6,21.2,80,29.40,1.8,WNW,10.4,18.4,0.01,Snow,Light Snow,290,2014-01-24 18:51:00
12:52 PM,26.1,21.9,84,29.46,1.8,WNW,9.2,18.4,0.01,Snow,Light Snow,290,2014-01-24 18:52:00
12:55 PM,26.1,21.9,84,29.40,2.0,WNW,10.4,18.4,0.00,Snow,Light Snow,290,2014-01-24 18:55:00
1:07 PM,26.1,21.9,84,29.39,1.8,West,9.2,19.6,0.00,Snow,Light Snow,280,2014-01-24 19:07:00
1:18 PM,27.0,23.0,85,29.38,2.0,West,8.1,-,0.00,Snow,Light Snow,280,2014-01-24 19:18:00
1:28 PM,27.0,23.0,85,29.37,2.0,West,9.2,18.4,0.00,Snow,Light Snow,280,2014-01-24 19:28:00
1:35 PM,27.0,23.0,85,29.37,2.5,West,9.2,17.3,0.00,Snow,Light Snow,280,2014-01-24 19:35:00
1:42 PM,27.0,23.0,85,29.37,3.0,West,10.4,18.4,0.00,Snow,Light Snow,280,2014-01-24 19:42:00
1:53 PM,28.0,23.0,81,29.42,4.0,West,12.7,20.7,0.00,Snow,Light Snow,280,2014-01-24 19:53:00
2:53 PM,28.0,21.9,78,29.41,4.0,WNW,16.1,24.2,0.00,Snow,Light Snow,300,2014-01-24 20:53:00
2:57 PM,27.0,21.9,81,29.36,1.8,WNW,15.0,26.5,0.00,Snow,Light Snow,300,2014-01-24 20:57:00
3:00 PM,27.0,23.0,85,29.36,1.0,NW,12.7,26.5,0.00,Snow,Light Snow,310,2014-01-24 21:00:00
3:11 PM,27.0,23.0,85,29.37,1.5,NW,13.8,24.2,0.00,Snow,Light Snow,310,2014-01-24 21:11:00
3:14 PM,27.0,23.0,85,29.37,3.0,NW,15.0,24.2,0.00,Snow,Light Snow,310,2014-01-24 21:14:00
3:23 PM,27.0,21.9,81,29.37,9.0,NW,15.0,23.0,0.00,Snow,Light Snow,310,2014-01-24 21:23:00
3:32 PM,27.0,21.9,81,29.37,2.5,NW,26.5,33.4,0.00,Snow,Light Snow,320,2014-01-24 21:32:00
3:36 PM,27.0,21.9,81,29.37,1.2,NW,24.2,34.5,0.00,Snow,Light Snow,320,2014-01-24 21:36:00
3:45 PM,26.1,21.0,81,29.38,0.8,NW,35.7,46.0,0.01,Snow,Light Snow,320,2014-01-24 21:45:00
3:53 PM,24.1,18.0,77,29.45,0.5,NNW,31.1,46.0,0.01,Snow,Snow,330,2014-01-24 21:53:00
4:02 PM,23.0,16.0,74,29.40,1.0,NNW,27.6,36.8,0.00,Snow,Light Snow,330,2014-01-24 22:02:00
4:09 PM,21.9,15.1,75,29.41,1.5,NNW,25.3,35.7,0.00,,Mostly Cloudy,330,2014-01-24 22:09:00
4:15 PM,21.9,15.1,75,29.41,3.0,NNW,23.0,34.5,0.00,,Haze,330,2014-01-24 22:15:00
4:25 PM,21.0,12.9,71,29.42,2.5,NNW,26.5,38.0,0.00,,Partly Cloudy,330,2014-01-24 22:25:00
4:48 PM,19.4,12.2,74,29.43,6.0,NW,21.9,28.8,0.00,,Haze,320,2014-01-24 22:48:00
4:53 PM,19.0,12.0,74,29.49,2.5,NW,27.6,32.2,0.00,,Haze,320,2014-01-24 22:53:00
4:56 PM,18.0,10.9,74,29.44,1.2,NW,27.6,35.7,0.00,,Scattered Clouds,320,2014-01-24 22:56:00
5:02 PM,17.1,10.9,77,29.44,1.0,NW,33.4,42.6,0.00,,Scattered Clouds,320,2014-01-24 23:02:00
5:13 PM,17.1,9.0,71,29.45,1.5,NW,27.6,39.1,0.00,,Partly Cloudy,320,2014-01-24 23:13:00
5:17 PM,17.1,10.0,74,29.46,2.0,NW,33.4,40.3,0.00,,Partly Cloudy,320,2014-01-24 23:17:00
5:24 PM,15.1,7.0,70,29.46,1.2,NW,32.2,41.4,0.00,,Partly Cloudy,320,2014-01-24 23:24:00
5:40 PM,14.0,3.9,64,29.47,1.8,NW,28.8,43.7,0.00,,Partly Cloudy,310,2014-01-24 23:40:00
5:53 PM,12.9,3.9,67,29.54,1.8,NW,27.6,39.1,0.00,,Partly Cloudy,320,2014-01-24 23:53:00
6:02 PM,12.0,3.9,70,29.49,2.5,NW,26.5,36.8,0.00,,Partly Cloudy,310,2014-01-25 00:02:00
6:15 PM,12.0,3.0,67,29.50,3.0,NW,26.5,33.4,0.00,,Clear,320,2014-01-25 00:15:00
6:53 PM,10.0,1.0,67,29.59,4.0,NW,27.6,34.5,0.00,,Clear,320,2014-01-25 00:53:00
7:34 PM,7.0,-0.0,73,29.55,4.0,NW,24.2,-,0.00,,Haze,320,2014-01-25 01:34:00
7:53 PM,6.1,-0.9,73,29.62,5.0,NW,25.3,32.2,0.00,,Haze,320,2014-01-25 01:53:00
8:53 PM,3.9,-4.0,70,29.67,5.0,NW,24.2,35.7,0.00,,Haze,320,2014-01-25 02:53:00
9:53 PM,1.9,-6.0,69,29.70,8.0,NW,20.7,29.9,N/A,,Clear,320,2014-01-25 03:53:00
10:53 PM,-0.0,-9.0,66,29.71,8.0,NW,17.3,28.8,N/A,,Clear,310,2014-01-25 04:53:00
11:53 PM,-0.9,-9.0,69,29.73,10.0,NW,18.4,26.5,N/A,,Clear,320,2014-01-25 05:53:00